Location: Mountain Grove
(34.0887°N, 86.6172°W)
Time: 21:54:02
(UTC+00:00)

Abrixas rocket - Pass Details

Date: 14 July 2020
Orbit: 339 x 347 km, 48.4° (Epoch: 07 August)

Event Time Altitude Azimuth Distance (km) Brightness Sun altitude
Rises 09:14:07 0° 318° (NW) 2,121 5.8 -16.5°
Reaches altitude 10° 09:16:22 10° 334° (NNW) 1,280 4.9 -16.2°
Maximum altitude 09:18:43 23° 30° (NNE) 787 4.5 -15.8°
Drops below altitude 10° 09:21:04 10° 86° (E) 1,276 5.5 -15.4°
Sets 09:23:19 0° 102° (ESE) 2,112 6.4 -15.1°
